This demonstration page uses our WeatherBlox Daily Observations layout. Learn more.

Left ArrowRight Arrow

39.92423, -83.80882

Hourly Observations for April 13, 2016

Temp ( °F °C ) Dew Point ( °F °C ) Humidity (%) Winds ( mph kmh ) Pressure ( in mb ) Visibility ( mi km ) Precip ( " mm )
12:56 am 00:56 Clear 34 1.1 30 -1.1 85 85 E 5 7 30.38 1029 10 16 0.00 0.00
1:56 am 01:56 Clear 33 0.5 29 -1.6 86 86 E 6 9 30.38 1029 10 16 0.00 0.00
2:56 am 02:56 Clear 32 0 28 -2.2 85 85 E 5 7 30.39 1029 10 16 0.00 0.00
3:56 am 03:56 Clear 30 -1.1 27 -2.7 89 89 E 5 7 30.39 1029 10 16 0.00 0.00
4:56 am 04:56 Clear 29 -1.6 26 -3.3 88 88 E 7 11 30.38 1029 10 16 0.00 0.00
5:56 am 05:56 Clear 30 -1.1 26 -3.3 85 85 E 8 13 30.39 1029 10 16 0.00 0.00
6:56 am 06:56 Clear 30 -1.1 27 -2.7 89 89 E 9 15 30.39 1029 10 16 0.00 0.00
7:56 am 07:56 Sunny 33 0.5 28 -2.2 82 82 E 8 13 30.40 1030 10 16 0.00 0.00
8:56 am 08:56 Sunny 38 3.3 29 -1.6 71 71 E 15 24 30.40 1030 10 16 0.00 0.00
9:56 am 09:56 Sunny 42 5.5 30 -1.1 63 63 E 18 30 30.40 1030 10 16 0.00 0.00
10:56 am 10:56 Sunny 46 7.7 30 -1.1 54 54 E 17 28 30.37 1028 10 16 0.00 0.00
11:56 am 11:56 Sunny 48 8.8 31 -0.5 52 52 E 13 20 30.35 1028 10 16 0.00 0.00
12:56 pm 12:56 Sunny 51 10.5 31 -0.5 47 47 E 12 19 30.35 1028 10 16 0.00 0.00
1:56 pm 13:56 Sunny 53 11.6 31 -0.5 43 43 ENE 7 11 30.35 1028 10 16 0.00 0.00
2:56 pm 14:56 Sunny 54 12.2 29 -1.6 39 39 ESE 8 13 30.32 1027 10 16 0.00 0.00
3:56 pm 15:56 Sunny 57 13.8 27 -2.7 32 32 E 12 19 30.29 1026 10 16 0.00 0.00
4:56 pm 16:56 Sunny 58 14.4 27 -2.7 31 31 VRB 5 7 30.28 1025 10 16 0.00 0.00
5:56 pm 17:56 Sunny 58 14.4 28 -2.2 32 32 ENE 12 19 30.26 1025 10 16 0.00 0.00
6:56 pm 18:56 Sunny 57 13.8 26 -3.3 31 31 NE 9 15 30.26 1025 10 16 0.00 0.00
7:56 pm 19:56 Sunny 51 10.5 30 -1.1 45 45 NE 9 15 30.26 1025 10 16 0.00 0.00
8:56 pm 20:56 Clear 44 6.6 28 -2.2 54 54 NE 7 11 30.27 1025 10 16 0.00 0.00
9:56 pm 21:56 Clear 43 6.1 33 0.5 68 68 NE 9 15 30.27 1025 10 16 0.00 0.00
10:56 pm 22:56 Clear 43 6.1 34 1.1 71 71 NE 12 19 30.27 1025 10 16 0.00 0.00
11:56 pm 23:56 Clear 40 4.4 33 0.5 76 76 NE 9 15 30.26 1025 10 16 0.00 0.00

Powered by AerisWeather